Home   Weather   Bernburg (Saale)   Past weeks

Flag for Germany Past Weather in Bernburg (Saale), Saxony-Anhalt, Germany — Yesterday and Last 2 Weeks

48 °F

Partly sunny.

Feels Like: 47 °F
Forecast: 42 / 56 °F
Wind: 3 mph from East

Location: Leipzig-Schkeuditz

Current Time: Oct 26, 2016 at 1:38:47 PM

Latest Report: Oct 26, 2016 at 1:20 PM

Visibility: N/A

Pressure: 30.39 "Hg

Humidity: 82%

Dew Point: 43 °F

Location of Bernburg (Saale)Location

Past Weather in Bernburg (Saale) — Graph


Bernburg (Saale) Temperature Yesterday

Maximum temperature yesterday: 52 °F (at 2:50 PM)
Minimum temperature yesterday: 46 °F (at 12:20 AM)
Average temperature yesterday: 48 °F

High & Low Weather Summary for the Past Weeks

High64 °F (Oct 16, 2:20 PM)100% (Oct 11, 7:50 PM)30.39 "Hg (Oct 11, 7:50 PM)
Low32 °F (Oct 23, 3:50 AM)52% (Oct 16, 4:20 PM)29.77 "Hg (Oct 15, 1:50 AM)
Average47 °F90%30.04 "Hg
* Reported Oct 11 12:20 PM — Oct 26 12:20 PM, Bernburg (Saale), Weather by CustomWeather, © 2016

Note: Actual official high and low records may vary slightly from our data, if they occured in-between our weather recording intervals... More about our weather records


Bernburg (Saale) Weather History for the Previous 24 Hours

Scroll right to see more
Time TempWeatherWind HumidityBarometerVisibility
12:20 PM
Wed, Oct 26
48 °FBroken clouds.3 mph82%30.39 "HgN/A
11:50 AM48 °FBroken clouds.3 mph82%30.39 "HgN/A
11:20 AM46 °FPartly sunny.1 mph87%30.39 "Hg5 mi
10:50 AM46 °FPartly sunny.2 mph93%30.39 "Hg4 mi
10:20 AM46 °FFog.3 mph87%30.39 "Hg3 mi
9:50 AM45 °FFog.3 mph100%30.39 "Hg2 mi
9:20 AM45 °FFog.2 mph93%30.39 "Hg2 mi
8:50 AM45 °FFog.5 mph93%30.36 "Hg2 mi
8:20 AM43 °FFog.6 mph100%30.36 "Hg2 mi
7:50 AM43 °FFog.6 mph100%30.36 "Hg2 mi
7:20 AM45 °FFog.7 mph93%30.36 "Hg3 mi
6:50 AM45 °FFog.6 mph93%30.36 "Hg3 mi
6:20 AM45 °FFog.5 mph93%30.36 "Hg3 mi
5:50 AM45 °FFog.5 mph93%30.33 "Hg3 mi
5:20 AM45 °FFog.6 mph93%30.33 "Hg3 mi
4:50 AM45 °FFog.5 mph100%30.33 "Hg3 mi
4:20 AM45 °FFog.6 mph100%30.33 "Hg3 mi
3:50 AM45 °FFog.6 mph100%30.33 "Hg3 mi
3:20 AM45 °FFog.7 mph100%30.33 "Hg3 mi
2:50 AM46 °FFog.6 mph93%30.33 "Hg2 mi
2:20 AM46 °FFog.7 mph93%30.33 "Hg2 mi
1:50 AM46 °FFog.7 mph93%30.33 "Hg2 mi
1:20 AM46 °FFog.7 mph100%30.30 "Hg2 mi
12:50 AM46 °FFog.7 mph100%30.30 "Hg2 mi
12:20 AM46 °FFog.6 mph100%30.30 "Hg2 mi
11:50 PM
Tue, Oct 25
46 °FFog.5 mph100%30.30 "Hg2 mi
11:20 PM46 °FFog.6 mph100%30.30 "Hg2 mi
10:50 PM46 °FFog.7 mph100%30.30 "Hg2 mi
10:20 PM46 °FFog.8 mph100%30.30 "Hg2 mi
9:50 PM46 °FFog.9 mph100%30.30 "Hg2 mi
9:20 PM46 °FDrizzle. Fog.8 mph100%30.27 "Hg1 mi
8:50 PM48 °FDrizzle. Fog.8 mph94%30.27 "Hg1 mi
8:20 PM48 °FDrizzle. Fog.8 mph100%30.27 "Hg1 mi
7:50 PM48 °FDrizzle. Fog.8 mph94%30.24 "Hg1 mi
7:20 PM48 °FFog.7 mph100%30.24 "Hg2 mi
6:50 PM48 °FDrizzle. Fog.8 mph100%30.24 "Hg2 mi
6:20 PM48 °FDrizzle. Fog.8 mph100%30.21 "Hg2 mi
5:50 PM48 °FDrizzle. Fog.7 mph100%30.21 "Hg2 mi
5:20 PM50 °FDrizzle. Low clouds.5 mph94%30.21 "Hg5 mi
4:50 PM50 °FDrizzle. Low clouds.5 mph94%30.18 "Hg5 mi
4:20 PM50 °FDrizzle. Low clouds.5 mph94%30.18 "Hg5 mi
3:50 PM52 °FLight rain. Overcast.3 mph88%30.18 "HgN/A
3:20 PM52 °FOvercast.3 mph88%30.18 "HgN/A
2:50 PM52 °FLow clouds.5 mph88%30.18 "HgN/A
2:20 PM50 °FLow clouds.5 mph94%30.15 "HgN/A
1:50 PM50 °FLow clouds.5 mph94%30.15 "HgN/A
1:20 PM50 °FLow clouds.5 mph94%30.15 "HgN/A
Weather by CustomWeather, © 2016

See weather overviewHow to use our weather pages